Regional Weather Roundup
Issued by NWS

Home | Current Version | Previous Version | Graphics & Text | Print | Product List | Glossary On
Versions: 1 2 3 4 5 6 7 8 9 10 11 12 13 14 15 16 17 18 19 20 21 22 23 24 25 26 27 28 29 30 31 32 33 34 35 36 37 38 39 40 41 42 43 44 45 46 47 48 49 50
000
ASUS45 KPSR 060210
RWRAZ

ARIZONA REGIONAL HOURLY WEATHER ROUNDUP
NATIONAL WEATHER SERVICE PHOENIX AZ
700 PM MST TUE MAY 05 2015

NOTE: FAIR INDICATES FEW OR NO CLOUDS BELOW 12,000 FEET WITH NO
SIGNIFICANT WEATHER AND/OR OBSTRUCTIONS TO VISIBILITY.

AZZ001>003-036-060300-
NORTHWEST ARIZONA

CITY           SKY/WX    TMP DP  RH WIND       PRES   REMARKS
BULLHEAD CITY  CLEAR     84  41  21 S23       29.70S
KINGMAN        CLEAR     70  39  32 SW20G29   29.84R
$$

AZZ004>008-015-016-018-060300-
NORTH CENTRAL ARIZONA

CITY           SKY/WX    TMP DP  RH WIND       PRES   REMARKS
GRAND CANYON   PTCLDY    56  41  57 SW14G21   29.95R
WILLIAMS       MOCLDY    52  45  76 SW10      30.06R
PRESCOTT       PTCLDY    62  40  44 SW15G21   29.94R
FLAGSTAFF      MOCLDY    48  45  89 SW15      30.00R
PAYSON         PTCLDY    57  46  67 CALM      29.98S
PAGE           CLOUDY    67  43  41 E5        29.80R
$$

AZZ009>014-017-060300-
NORTHEAST ARIZONA

CITY           SKY/WX    TMP DP  RH WIND       PRES   REMARKS
WINSLOW        MOCLDY    60  44  55 SW17G23   29.92R
SAINT JOHNS    CLOUDY    51  48  89 SE5       29.96R
WINDOW ROCK    MOCLDY    51  43  74 CALM      29.96R
SHOW LOW       MOCLDY    48  43  81 S13G18    30.02R
$$

AZZ023-060300-
GREATER PHOENIX AREA

CITY           SKY/WX    TMP DP  RH WIND       PRES   REMARKS
PHOENIX        PTCLDY    83  46  27 NW6       29.77S
GLENDALE       PTCLDY    82  48  30 S7        29.79S
LUKE AFB       CLEAR     82  49  31 SW6       29.77F
DEER VALLEY    CLEAR     79  46  31 W14       29.79S
SCOTTSDALE     CLEAR     80  46  30 W3        29.81S
MESA-FALCON    PTCLDY    79  45  29 NW7       29.80S
CHANDLER       PTCLDY    82  45  26 W6        29.79S
$$

AZZ027-028-060300-
SOUTHWEST MARICOPA COUNTY AND PINAL COUNTY

CITY           SKY/WX    TMP DP  RH WIND       PRES   REMARKS
CASA GRANDE    PTCLDY    81  46  30 NW7       29.79S
GILA BEND      FAIR      84  44  25 SW14      29.76R HAZE
$$

AZZ503-504-507>509-060300-
SOUTHEAST ARIZONA

CITY           SKY/WX    TMP DP  RH WIND       PRES   REMARKS
TUCSON         CLEAR     78  41  26 N7        29.87S
DAVIS-MONTHAN  PTCLDY    77  43  29 N9        29.85F
RYAN FIELD       N/A     81  46  30 NW5       29.85S
NOGALES        CLEAR     72  33  24 W9        29.93R
SIERRA VISTA   PTCLDY    69  34  27 W13       29.97R
DOUGLAS        MOCLDY    71  34  25 SW12      29.93R
SAFFORD        CLEAR     72  43  35 NW15      29.87R
$$

AZZ020-021-025-026-031-060300-
SOUTHWEST ARIZONA

CITY           SKY/WX    TMP DP  RH WIND       PRES   REMARKS
YUMA           MOCLDY    85  45  24 S13       29.74R
$$

CAZ031-033-041-043-047-048-061-060300-
SOUTHERN CALIFORNIA

CITY           SKY/WX    TMP DP  RH WIND       PRES   REMARKS
DOWNTOWN L.A.  MOCLDY    62  49  62 VRB3      29.92F
L.A. AIRPORT   MOCLDY    60  50  69 W12       29.94S
SAN DIEGO      MOCLDY    63  47  55 NW7       29.96S
BURBANK        MOCLDY    63  47  55 S7        29.91F
ONTARIO        MOCLDY    62  47  57 W12       29.91S
RIVERSIDE      MOCLDY    63  47  55 W9        29.91S
PALM SPRINGS   MOCLDY    78  43  28 NW20G30   29.75F
EL CENTRO NAS  MOCLDY    82  38  20 W16       29.74R
IMPERIAL       PTCLDY    80  41  24 W12       29.71S
BLYTHE         MOCLDY    85  29  13 SW13      29.72S
NEEDLES        PTCLDY    85  32  15 S13G23    29.72S
$$

NVZ020-UTZ003-060300-
SOUTHERN NEVADA-UTAH

CITY           SKY/WX    TMP DP  RH WIND       PRES   REMARKS
LAS VEGAS      PTCLDY    84  33  16 SW21G28   29.64S
SALT LAKE CITY MOCLDY    66  43  43 W10       29.77R
$$

NMZ009-TXZ055-060300-
NEW MEXICO-WEST TEXAS

CITY           SKY/WX    TMP DP  RH WIND       PRES   REMARKS
ALBUQUERQUE    CLOUDY    54  48  80 SE6       29.92S
EL PASO        PTCLDY    75  32  20 W16G24    29.87R
$$


........................KEY........................
SKY/WX - SKY CONDITION/WEATHER
TMP    - TEMPERATURE IN FAHRENHEIT
DP     - DEW POINT IN FAHRENHEIT
RH     - RELATIVE HUMIDITY IN PERCENT
WIND   - DIRECTION AND SPEED IN MILES PER HOUR (MPH)
VRB    - VARIABLE WIND DIRECTION
PRES   - MEAN SEA LEVEL PRESSURE IN INCHES OF MERCURY
         F - FALLING PRESSURE   R - RISING PRESSURE
         S - STEADY PRESSURE
VSB    - VISIBILITY IN MILES
HX     - HEAT INDEX IN FAHRENHEIT
WCI    - WIND CHILL INDEX IN FAHRENHEIT
TC     - TEMPERATURE IN CELSIUS WHICH IS ALSO KNOWN AS
         TEMPERATURE IN CENTIGRADE
AFB    - AIR FORCE BASE
         LUKE AFB IS LUKE AIR FORCE BASE
         DAVIS-MONTHAN IS DAVIS-MONTHAN AIR FORCE BASE
NAS    - NAVAL AIR STATION
         EL CENTRO NAS IS EL CENTRO NAVAL AIR STATION
N/A    - NOT AVAILABLE



USA.gov is the U.S. government's official web portal to all federal, state and local government web resources and services.